• în România
  • Lista ţărilor
  • Pe 7 zile
  • Temperatura apei
  • Hartă satelitară
  • Meteo pe hartă
  • Widget-uri
  • user-avatar
    Intrare

    Meteo pe oră la Omagh

    Astăzi, 16 Octombrie, Marţi

    Timp Temperatura Precipitaţii Vânt Presiune Umiditate
    00:00 +6°C° 0 mm 4 m/s 751 mmHg 87%
    01:00 +6°C° 0 mm 4 m/s 750 mmHg 89%
    02:00 +6°C° 0 mm 4 m/s 750 mmHg 90%
    03:00 +6°C° 0 mm 4 m/s 749 mmHg 91%
    04:00 +6°C° 0.1 mm 4 m/s 749 mmHg 90%
    05:00 +6°C° 0.1 mm 5 m/s 748 mmHg 89%
    06:00 +7°C° 0.1 mm 5 m/s 748 mmHg 88%
    07:00 +7°C° 0.3 mm 5 m/s 748 mmHg 89%
    08:00 +8°C° 0.3 mm 5 m/s 748 mmHg 91%
    09:00 +8°C° 0.3 mm 5 m/s 748 mmHg 93%
    10:00 +9°C° 0.1 mm 5 m/s 748 mmHg 91%
    11:00 +12°C° 0.1 mm 5 m/s 748 mmHg 90%
    12:00 +13°C° 0.1 mm 5 m/s 748 mmHg 89%
    13:00 +13°C° 0.1 mm 5 m/s 749 mmHg 84%
    14:00 +13°C° 0.1 mm 5 m/s 749 mmHg 80%
    15:00 +14°C° 0.1 mm 5 m/s 749 mmHg 75%
    16:00 +13°C° 0 mm 4 m/s 749 mmHg 80%
    17:00 +11°C° 0 mm 4 m/s 749 mmHg 84%
    18:00 +10°C° 0 mm 4 m/s 750 mmHg 89%
    19:00 +10°C° 0 mm 3 m/s 750 mmHg 91%
    20:00 +10°C° 0 mm 3 m/s 751 mmHg 93%
    21:00 +9°C° 0 mm 3 m/s 751 mmHg 95%
    22:00 +9°C° 0 mm 3 m/s 752 mmHg 95%
    23:00 +9°C° 0 mm 2 m/s 752 mmHg 96%

    Mâine, 17 Octombrie, Miercuri

    Timp Temperatura Precipitaţii Vânt Presiune Umiditate
    00:00 +9°C° 0 mm 2 m/s 752 mmHg 97%
    01:00 +9°C° 0 mm 2 m/s 753 mmHg 97%
    02:00 +9°C° 0 mm 2 m/s 753 mmHg 96%
    03:00 +9°C° 0 mm 2 m/s 754 mmHg 96%
    04:00 +10°C° 0 mm 1 m/s 754 mmHg 95%
    05:00 +10°C° 0 mm 1 m/s 754 mmHg 94%
    06:00 +10°C° 0 mm 1 m/s 755 mmHg 93%
    07:00 +10°C° 0 mm 1 m/s 755 mmHg 90%
    08:00 +9°C° 0 mm 2 m/s 756 mmHg 87%
    09:00 +9°C° 0 mm 2 m/s 757 mmHg 84%
    10:00 +10°C° 0 mm 2 m/s 757 mmHg 79%
    11:00 +10°C° 0 mm 2 m/s 758 mmHg 73%
    12:00 +12°C° 0 mm 2 m/s 759 mmHg 67%
    13:00 +12°C° 0 mm 2 m/s 759 mmHg 67%
    14:00 +12°C° 0 mm 2 m/s 760 mmHg 67%
    15:00 +12°C° 0 mm 2 m/s 760 mmHg 67%
    16:00 +10°C° 0 mm 2 m/s 761 mmHg 73%
    17:00 +8°C° 0 mm 2 m/s 761 mmHg 78%
    18:00 +7°C° 0 mm 2 m/s 762 mmHg 84%
    19:00 +8°C° 0 mm 1 m/s 762 mmHg 85%
    20:00 +7°C° 0 mm 1 m/s 763 mmHg 87%
    21:00 +7°C° 0 mm 1 m/s 763 mmHg 88%
    22:00 +6°C° 0 mm 1 m/s 763 mmHg 89%
    23:00 +6°C° 0 mm 1 m/s 764 mmHg 89%

    Poimâine, 18 Octombrie, Joi

    Timp Temperatura Precipitaţii Vânt Presiune Umiditate
    00:00 +6°C° 0 mm 1 m/s 764 mmHg 90%
    01:00 +6°C° 0 mm 1 m/s 764 mmHg 90%
    02:00 +5°C° 0 mm 1 m/s 764 mmHg 91%
    03:00 +5°C° 0 mm 1 m/s 764 mmHg 92%
    04:00 +5°C° 0 mm 1 m/s 764 mmHg 92%
    05:00 +5°C° 0 mm 1 m/s 764 mmHg 92%
    06:00 +5°C° 0 mm 1 m/s 764 mmHg 93%
    07:00 +6°C° 0 mm 1 m/s 764 mmHg 90%
    08:00 +6°C° 0 mm 1 m/s 764 mmHg 87%
    09:00 +7°C° 0 mm 1 m/s 764 mmHg 84%
    10:00 +8°C° 0 mm 1 m/s 764 mmHg 80%
    11:00 +8°C° 0 mm 2 m/s 764 mmHg 76%
    12:00 +10°C° 0 mm 2 m/s 764 mmHg 71%
    13:00 +10°C° 0 mm 2 m/s 764 mmHg 70%
    14:00 +10°C° 0 mm 3 m/s 763 mmHg 69%
    15:00 +10°C° 0 mm 3 m/s 763 mmHg 68%
    16:00 +9°C° 0 mm 3 m/s 762 mmHg 75%
    17:00 +8°C° 0 mm 2 m/s 762 mmHg 81%
    18:00 +6°C° 0 mm 2 m/s 762 mmHg 88%
    19:00 +5°C° 0 mm 3 m/s 762 mmHg 88%
    20:00 +7°C° 0 mm 3 m/s 761 mmHg 87%
    21:00 +7°C° 0 mm 3 m/s 761 mmHg 87%
    22:00 +7°C° 0 mm 3 m/s 761 mmHg 85%
    23:00 +6°C° 0 mm 4 m/s 761 mmHg 84%

    19 Octombrie, Vineri

    Timp Temperatura Precipitaţii Vânt Presiune Umiditate
    00:00 +7°C° 0 mm 4 m/s 760 mmHg 82%
    01:00 +7°C° 0 mm 4 m/s 760 mmHg 82%
    02:00 +7°C° 0 mm 4 m/s 759 mmHg 82%
    03:00 +7°C° 0 mm 4 m/s 759 mmHg 82%
    04:00 +7°C° 0.1 mm 4 m/s 759 mmHg 84%
    05:00 +7°C° 0.1 mm 4 m/s 758 mmHg 86%
    06:00 +8°C° 0.1 mm 5 m/s 758 mmHg 88%
    07:00 +8°C° 0 mm 4 m/s 758 mmHg 88%
    08:00 +10°C° 0 mm 4 m/s 759 mmHg 89%
    09:00 +10°C° 0 mm 4 m/s 759 mmHg 90%
    10:00 +10°C° 0.1 mm 3 m/s 759 mmHg 90%
    11:00 +11°C° 0.1 mm 3 m/s 760 mmHg 90%
    12:00 +12°C° 0.1 mm 2 m/s 760 mmHg 91%
    13:00 +12°C° 0.1 mm 2 m/s 760 mmHg 90%
    14:00 +13°C° 0.1 mm 2 m/s 760 mmHg 90%
    15:00 +13°C° 0.1 mm 1 m/s 760 mmHg 89%
    16:00 +12°C° 0 mm 1 m/s 761 mmHg 91%
    17:00 +12°C° 0 mm 1 m/s 761 mmHg 94%
    18:00 +11°C° 0 mm 1 m/s 761 mmHg 96%
    19:00 +11°C° 0 mm 1 m/s 761 mmHg 96%
    20:00 +11°C° 0 mm 1 m/s 761 mmHg 97%
    21:00 +10°C° 0 mm 2 m/s 762 mmHg 97%
    22:00 +10°C° 0 mm 2 m/s 762 mmHg 98%
    23:00 +10°C° 0 mm 2 m/s 762 mmHg 98%

    20 Octombrie, Sâmbătă

    Timp Temperatura Precipitaţii Vânt Presiune Umiditate
    00:00 +10°C° 0 mm 2 m/s 762 mmHg 98%
    01:00 +10°C° 0 mm 2 m/s 762 mmHg 98%
    02:00 +10°C° 0 mm 2 m/s 762 mmHg 98%
    03:00 +10°C° 0 mm 2 m/s 762 mmHg 97%
    04:00 +10°C° 0 mm 2 m/s 762 mmHg 97%
    05:00 +10°C° 0 mm 2 m/s 762 mmHg 97%
    06:00 +10°C° 0 mm 3 m/s 762 mmHg 96%
    07:00 +10°C° 0 mm 3 m/s 762 mmHg 95%
    08:00 +11°C° 0 mm 3 m/s 762 mmHg 95%
    09:00 +12°C° 0 mm 3 m/s 762 mmHg 94%
    10:00 +12°C° 0 mm 3 m/s 762 mmHg 93%
    11:00 +13°C° 0 mm 3 m/s 763 mmHg 92%
    12:00 +14°C° 0 mm 3 m/s 763 mmHg 91%
    13:00 +14°C° 0 mm 3 m/s 763 mmHg 91%
    14:00 +14°C° 0 mm 3 m/s 762 mmHg 92%
    15:00 +16°C° 0 mm 3 m/s 762 mmHg 92%
    16:00 +14°C° 0 mm 3 m/s 762 mmHg 94%
    17:00 +14°C° 0 mm 3 m/s 762 mmHg 95%
    18:00 +14°C° 0 mm 3 m/s 762 mmHg 97%
    19:00 +14°C° 0 mm 3 m/s 762 mmHg 96%
    20:00 +14°C° 0 mm 3 m/s 762 mmHg 96%
    21:00 +14°C° 0 mm 3 m/s 762 mmHg 95%
    22:00 +14°C° 0 mm 4 m/s 762 mmHg 95%
    23:00 +14°C° 0 mm 4 m/s 762 mmHg 94%

    21 Octombrie, Duminică

    Timp Temperatura Precipitaţii Vânt Presiune Umiditate
    00:00 +14°C° 0 mm 4 m/s 761 mmHg 94%
    01:00 +14°C° 0 mm 4 m/s 761 mmHg 94%
    02:00 +15°C° 0 mm 4 m/s 761 mmHg 94%
    03:00 +15°C° 0 mm 4 m/s 761 mmHg 93%
    04:00 +15°C° 0.1 mm 4 m/s 761 mmHg 93%
    05:00 +14°C° 0.1 mm 4 m/s 761 mmHg 92%
    06:00 +14°C° 0.1 mm 5 m/s 761 mmHg 92%
    07:00 +13°C° 0.1 mm 5 m/s 762 mmHg 90%
    08:00 +12°C° 0.1 mm 5 m/s 762 mmHg 87%
    09:00 +10°C° 0.1 mm 5 m/s 763 mmHg 85%
    10:00 +10°C° 0 mm 5 m/s 763 mmHg 79%
    11:00 +10°C° 0 mm 5 m/s 764 mmHg 73%
    12:00 +11°C° 0 mm 6 m/s 765 mmHg 67%
    13:00 +10°C° 0.1 mm 6 m/s 765 mmHg 67%
    14:00 +9°C° 0.1 mm 6 m/s 765 mmHg 67%
    15:00 +9°C° 0.1 mm 6 m/s 766 mmHg 66%
    16:00 +8°C° 0 mm 5 m/s 766 mmHg 68%
    17:00 +7°C° 0 mm 4 m/s 767 mmHg 70%
    18:00 +7°C° 0 mm 3 m/s 767 mmHg 72%
    19:00 +6°C° 0 mm 4 m/s 767 mmHg 73%
    20:00 +6°C° 0 mm 4 m/s 768 mmHg 74%
    21:00 +6°C° 0 mm 4 m/s 768 mmHg 76%
    22:00 +6°C° 0 mm 4 m/s 768 mmHg 76%
    23:00 +6°C° 0 mm 4 m/s 768 mmHg 76%
    Arată mai mult